sat.trackr.live / text

‹ back to catalog

STARLINK-36604

NORAD 68142 · 2026-049A

PAYLOAD ACTIVE UNKNOWN

§ Identity

Operator
Country
US
Launch date
2026-03-13
Launch site
AFWTR
Launch vehicle
Mass (kg)
RCS (m²)

Purposes: comms

External: N2YO · Heavens-Above · Gunter

§ Orbital elements

Epoch: 2026-09-20T04:00:03.000096Z

Period
93.90 min
Inclination
97.2846°
Eccentricity
0.0000529
Mean motion
15.33476398 rev/d
Perigee alt
465.1 km
Apogee alt
465.8 km
Semi-major
6,843.6 km
B*
-1.3612e-3
RAAN
283.0809°
Arg perigee
36.6608°
Mean anomaly
85.0238°
Rev number
586

§ Raw data

STARLINK-366041 68142U 26049A   26263.16670139 -.00043808  00000+0 -13612-2 0  99932 68142  97.2846 283.0809 0000529  36.6608  85.0238 15.33476398  5868

JSON: /api/v1/satellites/68142 · /tle

For live sub-satellite position, see the globe view (requires WebGL).

§ Visibility from observer

Set your observer location to see the next 7 days of passes ≥ 10°. The values pass through the URL so the page stays shareable.

No JS? Fill the form by hand. The geolocation button needs JavaScript.